Indian Springs, NV

6:47 AM PDT on July 21, 2017 (GMT -0700)
Indian Springs Air Force Auxiliary

Weather History for KINS - March, 2012

Change the Weather History Date:

Friday, March 30, 2012

  Actual Average (KDRA) Record (KDRA)
Temperature  
Mean Temperature 62 °F -  
Max Temperature 78 °F 66 °F 86 °F (2015)
Min Temperature 45 °F 41 °F 30 °F (1987)
Degree Days  
Heating Degree Days 4    
Growing Degree Days 12 (Base 50)    
Moisture  
Dew Point 29 °F    
Average Humidity 31    
Maximum Humidity 52    
Minimum Humidity 15    
Precipitation  
Precipitation 0.00 in - - ()
Sea Level Pressure  
Sea Level Pressure 29.86 in    
Wind  
Wind Speed 3 mph (SSE)    
Max Wind Speed 12 mph    
Max Gust Speed -    
Visibility 10 miles    
Events      
Averages and records for this station are not official NWS values.
T = Trace of Precipitation, MM = Missing Value Source: NWS Daily Summary

Daily Weather History Graph

Daily Weather History Graph

Search for Another Location

Airport or City:

Trip Planner

Search our weather history database for the weather conditions in past years. The results will help you decide how hot, cold, wet, or windy it might be!

Date:

Astronomy

Mar. 30, 2012 Rise Set
Actual Time 6:30 AM PDT 7:03 PM PDT
Civil Twilight 6:04 AM PDT 7:29 PM PDT
Nautical Twilight 5:34 AM PDT 8:00 PM PDT
Astronomical Twilight 5:03 AM PDT 8:31 PM PDT
Moon 11:47 AM PDT (3/30) 1:35 AM PDT (3/30)
Length of Visible Light 13h 24m
Length of Day
12h 32m
Waxing Crescent, 50% of the Moon is Illuminated
Mar 30
Waxing Crescent
Mar 30
First Quarter
Apr 6
Full
Apr 13
Last Quarter
Apr 21
New

Hourly Weather History & Observations

Time (PDT) Temp. Windchill Dew Point Humidity Pressure Visibility Wind Dir Wind Speed Gust Speed Precip Events Conditions
12:55 AM 52.3 °F - 28.6 °F 40% 29.89 in 10.0 mi SW 4.6 mph - N/A   Clear
1:55 AM 52.3 °F - 28.4 °F 40% 29.90 in 10.0 mi Calm Calm - N/A   Clear
2:55 AM 49.5 °F - 29.5 °F 46% 29.89 in 10.0 mi West 6.9 mph - N/A   Clear
3:55 AM 50.7 °F - 29.8 °F 45% 29.90 in 10.0 mi Calm Calm - N/A   Clear
4:55 AM 47.3 °F - 27.9 °F 47% 29.91 in 10.0 mi Calm Calm - N/A   Clear
5:55 AM 46.0 °F - 28.8 °F 51% 29.91 in 10.0 mi Calm Calm - N/A   Clear
6:55 AM 45.0 °F 43.5 °F 28.4 °F 52% 29.93 in 10.0 mi West 3.5 mph - N/A   Clear
7:55 AM 50.9 °F - 30.6 °F 46% 29.96 in 10.0 mi West 4.6 mph - N/A   Clear
8:55 AM 58.5 °F - 30.7 °F 35% 29.96 in 10.0 mi Calm Calm - N/A   Clear
9:55 AM 65.1 °F - 30.7 °F 28% 29.94 in 10.0 mi Calm Calm - N/A   Clear
10:55 AM 68.9 °F - 30.0 °F 24% 29.92 in 10.0 mi Calm Calm - N/A   Clear
11:55 AM 71.8 °F - 29.3 °F 21% 29.91 in 10.0 mi Calm Calm - N/A   Clear
2:55 PM 77.0 °F - 26.1 °F 15% 29.83 in 10.0 mi Variable 4.6 mph - N/A   Clear
3:55 PM 77.4 °F - 26.8 °F 15% 29.81 in 10.0 mi Calm Calm - N/A   Partly Cloudy
4:55 PM 78.1 °F - 29.1 °F 17% 29.80 in 10.0 mi East 8.1 mph - N/A   Clear
5:55 PM 77.5 °F - 30.0 °F 18% 29.79 in 10.0 mi East 11.5 mph - N/A   Clear
6:55 PM 75.0 °F - 29.3 °F 19% 29.79 in 10.0 mi East 10.4 mph - N/A   Clear
7:55 PM 72.3 °F - 29.7 °F 21% 29.79 in 10.0 mi East 6.9 mph - N/A   Clear
8:55 PM 67.8 °F - 29.1 °F 24% 29.80 in 10.0 mi NNW 5.8 mph - N/A   Clear
9:55 PM 63.7 °F - 27.7 °F 26% 29.80 in 10.0 mi Calm Calm - N/A   Clear
10:55 PM 64.4 °F - 26.2 °F 24% 29.79 in 10.0 mi SSE 3.5 mph - N/A   Clear
11:55 PM 62.8 °F - 25.9 °F 25% 29.78 in 10.0 mi Calm Calm - N/A   Clear